Multibeam Report for FK140204


Ship Name: Falkor
Chief Scientist: None
Source Organization: UNOLS R2R
Start Date: 2014-02-04
End Date: 2014-02-08


View ISO Metadata

Visit the full NCEI Bathymetry Viewer


Multibeam Bathymetry

Cruise Details

Project: Shakedown/Equipment Testing
Instrument: Kongsberg EM302 and EM710

Data Quality

Number of Files: 206
Number of Records: 248193
BATHYMETRY DATA Quantity Percentage
Number of Beams 103131408 100%
Number of Good Beams 101211512 98.14%
Number of Zero Beams 0 0%
Number of Flagged Beams 1919896 1.86%

Navigation Totals

Total Time: 62.9195 hours
Total Track Length: 753.7606 km
Average Speed: 11.98 km/hr (6.4687 knots)

Cruise Bounds

Northern Extent: 21.26982
Southern Extent: 20.449903
Western Extent: -158.1001
Eastern Extent: -157.7721

Limits

Minimum Sonar Depth 0 Maximum Sonar Depth 7.7762
Minimum Altitude 30.7785 Maximum Altitude 4843.4688
Minimum Depth 33.013 Maximum Depth 5239.7109

File Information

Full Resolution Bathymetry as collected (raw): 202

Files File Size Description
0000_20140204_200609_FK140204_EM302.all.mb58.gz 54.51MB Kongsberg multibeam vendor format
0000_20140205_050523_FK140204_EM302.all.mb58.gz 32.88MB Kongsberg multibeam vendor format
0000_20140205_073046_FK140204_EM302.all.mb58.gz 73.84MB Kongsberg multibeam vendor format
0000_20140205_205347_FK140204_EM302.all.mb58.gz 115.51MB Kongsberg multibeam vendor format
0000_20140206_174714_FK140204_EM302.all.mb58.gz 17.20MB Kongsberg multibeam vendor format
0000_20140207_025550_FK140204_EM302.all.mb58.gz 33.29MB Kongsberg multibeam vendor format
0000_20140207_073041_FK140204_EM302.all.mb58.gz 33.72MB Kongsberg multibeam vendor format
0000_20140207_182131_FK140204_EM302.all.mb58.gz 118.29MB Kongsberg multibeam vendor format
0000_20140207_224929_FK140204_EM302.all.mb58.gz 4.46MB Kongsberg multibeam vendor format
0000_20140207_230702_FK140204_EM302.all.mb58.gz 2.93MB Kongsberg multibeam vendor format
0001_20140205_081504_FK140204_EM302.all.mb58.gz 72.80MB Kongsberg multibeam vendor format
0001_20140205_211221_FK140204_EM302.all.mb58.gz 75.57MB Kongsberg multibeam vendor format
0001_20140206_182631_FK140204_EM302.all.mb58.gz 18.35MB Kongsberg multibeam vendor format
0001_20140207_035556_FK140204_EM302.all.mb58.gz 32.74MB Kongsberg multibeam vendor format
0001_20140207_083041_FK140204_EM302.all.mb58.gz 33.40MB Kongsberg multibeam vendor format
0001_20140207_190613_FK140204_EM302.all.mb58.gz 70.9KB Kongsberg multibeam vendor format
0001_20140207_225231_FK140204_EM302.all.mb58.gz 3.62MB Kongsberg multibeam vendor format
0001_20140207_230933_FK140204_EM302.all.mb58.gz 1.93MB Kongsberg multibeam vendor format
0002_20140204_203204_FK140204_EM302.all.mb58.gz 28.39MB Kongsberg multibeam vendor format
0002_20140205_085744_FK140204_EM302.all.mb58.gz 75.07MB Kongsberg multibeam vendor format
0002_20140205_212712_FK140204_EM302.all.mb58.gz 70.30MB Kongsberg multibeam vendor format
0002_20140207_045552_FK140204_EM302.all.mb58.gz 1.67MB Kongsberg multibeam vendor format
0002_20140207_093047_FK140204_EM302.all.mb58.gz 59.68MB Kongsberg multibeam vendor format
0002_20140207_190615_FK140204_EM302.all.mb58.gz 78.75MB Kongsberg multibeam vendor format
0002_20140207_225710_FK140204_EM302.all.mb58.gz 3.64MB Kongsberg multibeam vendor format
0002_20140207_231154_FK140204_EM302.all.mb58.gz 2.16MB Kongsberg multibeam vendor format
0003_20140204_204028_FK140204_EM302.all.mb58.gz 51.23MB Kongsberg multibeam vendor format
0003_20140205_094428_FK140204_EM302.all.mb58.gz 71.14MB Kongsberg multibeam vendor format
0003_20140205_214132_FK140204_EM302.all.mb58.gz 51.21MB Kongsberg multibeam vendor format
0003_20140207_045855_FK140204_EM302.all.mb58.gz 20.64MB Kongsberg multibeam vendor format
0003_20140207_103042_FK140204_EM302.all.mb58.gz 43.25MB Kongsberg multibeam vendor format
0003_20140207_194205_FK140204_EM302.all.mb58.gz 46.88MB Kongsberg multibeam vendor format
0003_20140207_231347_FK140204_EM302.all.mb58.gz 2.82MB Kongsberg multibeam vendor format
0004_20140204_205607_FK140204_EM302.all.mb58.gz 22.48MB Kongsberg multibeam vendor format
0004_20140205_102705_FK140204_EM302.all.mb58.gz 72.50MB Kongsberg multibeam vendor format
0004_20140205_215510_FK140204_EM302.all.mb58.gz 46.11MB Kongsberg multibeam vendor format
0004_20140207_053650_FK140204_EM302.all.mb58.gz 93.4KB Kongsberg multibeam vendor format
0004_20140207_105540_FK140204_EM302.all.mb58.gz 48.58MB Kongsberg multibeam vendor format
0004_20140207_200336_FK140204_EM302.all.mb58.gz 27.44MB Kongsberg multibeam vendor format
0004_20140207_231620_FK140204_EM302.all.mb58.gz 2.00MB Kongsberg multibeam vendor format
0005_20140204_211745_FK140204_EM302.all.mb58.gz 22.51MB Kongsberg multibeam vendor format
0005_20140205_110954_FK140204_EM302.all.mb58.gz 64.90MB Kongsberg multibeam vendor format
0005_20140205_220926_FK140204_EM302.all.mb58.gz 56.61MB Kongsberg multibeam vendor format
0005_20140207_055309_FK140204_EM302.all.mb58.gz 19.94MB Kongsberg multibeam vendor format
0005_20140207_115540_FK140204_EM302.all.mb58.gz 1.68MB Kongsberg multibeam vendor format
0005_20140207_201655_FK140204_EM302.all.mb58.gz 57.90MB Kongsberg multibeam vendor format
0005_20140207_231821_FK140204_EM302.all.mb58.gz 2.04MB Kongsberg multibeam vendor format
0006_20140204_212800_FK140204_EM302.all.mb58.gz 51.50MB Kongsberg multibeam vendor format
0006_20140205_114626_FK140204_EM302.all.mb58.gz 72.42MB Kongsberg multibeam vendor format
0006_20140205_222307_FK140204_EM302.all.mb58.gz 40.04MB Kongsberg multibeam vendor format
0006_20140207_064120_FK140204_EM302.all.mb58.gz 22.13MB Kongsberg multibeam vendor format
0006_20140207_120700_FK140204_EM302.all.mb58.gz 45.33MB Kongsberg multibeam vendor format
0006_20140207_204415_FK140204_EM302.all.mb58.gz 17.82MB Kongsberg multibeam vendor format
0007_20140204_225018_FK140204_EM302.all.mb58.gz 20.84MB Kongsberg multibeam vendor format
0007_20140205_124053_FK140204_EM302.all.mb58.gz 56.22MB Kongsberg multibeam vendor format
0007_20140205_223640_FK140204_EM302.all.mb58.gz 56.42MB Kongsberg multibeam vendor format
0007_20140207_130700_FK140204_EM302.all.mb58.gz 7.73MB Kongsberg multibeam vendor format
0007_20140207_205213_FK140204_EM302.all.mb58.gz 51.08MB Kongsberg multibeam vendor format
0008_20140204_230006_FK140204_EM302.all.mb58.gz 13.50MB Kongsberg multibeam vendor format
0008_20140205_131759_FK140204_EM302.all.mb58.gz 50.12MB Kongsberg multibeam vendor format
0008_20140205_224812_FK140204_EM302.all.mb58.gz 21.42MB Kongsberg multibeam vendor format
0008_20140207_131149_FK140204_EM302.all.mb58.gz 114.01MB Kongsberg multibeam vendor format
0008_20140207_211636_FK140204_EM302.all.mb58.gz 18.96MB Kongsberg multibeam vendor format
0009_20140204_233539_FK140204_EM302.all.mb58.gz 0.95MB Kongsberg multibeam vendor format
0009_20140205_135253_FK140204_EM302.all.mb58.gz 30.79MB Kongsberg multibeam vendor format
0009_20140205_230018_FK140204_EM302.all.mb58.gz 33.37MB Kongsberg multibeam vendor format
0009_20140207_141149_FK140204_EM302.all.mb58.gz 125.56MB Kongsberg multibeam vendor format
0009_20140207_212548_FK140204_EM302.all.mb58.gz 59.23MB Kongsberg multibeam vendor format
0010_20140204_233605_FK140204_EM302.all.mb58.gz 36.90MB Kongsberg multibeam vendor format
0010_20140205_143222_FK140204_EM302.all.mb58.gz 28.06MB Kongsberg multibeam vendor format
0010_20140205_231122_FK140204_EM302.all.mb58.gz 20.18MB Kongsberg multibeam vendor format
0010_20140207_151151_FK140204_EM302.all.mb58.gz 134.76MB Kongsberg multibeam vendor format
0010_20140207_215433_FK140204_EM302.all.mb58.gz 71.06MB Kongsberg multibeam vendor format
0011_20140205_001228_FK140204_EM302.all.mb58.gz 32.39MB Kongsberg multibeam vendor format
0011_20140205_151242_FK140204_EM302.all.mb58.gz 55.78MB Kongsberg multibeam vendor format
0011_20140207_161150_FK140204_EM302.all.mb58.gz 131.10MB Kongsberg multibeam vendor format
0011_20140207_222715_FK140204_EM302.all.mb58.gz 34.11MB Kongsberg multibeam vendor format
0012_20140205_002637_FK140204_EM302.all.mb58.gz 0.81MB Kongsberg multibeam vendor format
0012_20140205_154954_FK140204_EM302.all.mb58.gz 56.61MB Kongsberg multibeam vendor format
0012_20140207_171152_FK140204_EM302.all.mb58.gz 44.24MB Kongsberg multibeam vendor format
0013_20140205_002713_FK140204_EM302.all.mb58.gz 7.25MB Kongsberg multibeam vendor format
0013_20140206_014915_FK140204_EM302.all.mb58.gz 62.48MB Kongsberg multibeam vendor format
0014_20140205_004453_FK140204_EM302.all.mb58.gz 18.97MB Kongsberg multibeam vendor format
0014_20140206_023354_FK140204_EM302.all.mb58.gz 43.25MB Kongsberg multibeam vendor format
0015_20140205_005337_FK140204_EM302.all.mb58.gz 52.14MB Kongsberg multibeam vendor format
0015_20140206_025910_FK140204_EM302.all.mb58.gz 9.15MB Kongsberg multibeam vendor format
0016_20140205_010919_FK140204_EM302.all.mb58.gz 237.1KB Kongsberg multibeam vendor format
0016_20140206_030747_FK140204_EM302.all.mb58.gz 28.04MB Kongsberg multibeam vendor format
0017_20140205_011840_FK140204_EM302.all.mb58.gz 45.14MB Kongsberg multibeam vendor format
0017_20140206_033419_FK140204_EM302.all.mb58.gz 7.54MB Kongsberg multibeam vendor format
0018_20140205_013228_FK140204_EM302.all.mb58.gz 36.56MB Kongsberg multibeam vendor format
0018_20140206_034129_FK140204_EM302.all.mb58.gz 24.56MB Kongsberg multibeam vendor format
0019_20140205_014637_FK140204_EM302.all.mb58.gz 0.96MB Kongsberg multibeam vendor format
0019_20140206_041055_FK140204_EM302.all.mb58.gz 95.23MB Kongsberg multibeam vendor format
0020_20140205_015711_FK140204_EM302.all.mb58.gz 44.08MB Kongsberg multibeam vendor format
0020_20140206_045702_FK140204_EM302.all.mb58.gz 20.63MB Kongsberg multibeam vendor format
0021_20140206_050643_FK140204_EM302.all.mb58.gz 7.52MB Kongsberg multibeam vendor format
0022_20140205_023428_FK140204_EM302.all.mb58.gz 38.56MB Kongsberg multibeam vendor format
0022_20140206_051015_FK140204_EM302.all.mb58.gz 43.05MB Kongsberg multibeam vendor format
9999_140204210600_tmp.all.mb58.gz 116.9KB Kongsberg multibeam vendor format
0000_20140204_200628_FK140204_EM710.all.mb58.gz 41.41MB Kongsberg multibeam vendor format
0000_20140205_033646_FK140204_EM710.all.mb58.gz 28.26MB Kongsberg multibeam vendor format
0000_20140205_051934_FK140204_EM710.all.mb58.gz 77.0KB Kongsberg multibeam vendor format
0000_20140205_073048_FK140204_EM710.all.mb58.gz 87.57MB Kongsberg multibeam vendor format
0000_20140205_205349_FK140204_EM710.all.mb58.gz 114.01MB Kongsberg multibeam vendor format
0000_20140207_073818_FK140204_EM710.all.mb58.gz 24.97MB Kongsberg multibeam vendor format
0000_20140207_182141_FK140204_EM710.all.mb58.gz 51.22MB Kongsberg multibeam vendor format
0000_20140207_224931_FK140204_EM710.all.mb58.gz 5.48MB Kongsberg multibeam vendor format
0000_20140207_230702_FK140204_EM710.all.mb58.gz 4.82MB Kongsberg multibeam vendor format
0001_20140204_203234_FK140204_EM710.all.mb58.gz 25.75MB Kongsberg multibeam vendor format
0001_20140205_034653_FK140204_EM710.all.mb58.gz 26.82MB Kongsberg multibeam vendor format
0001_20140205_081458_FK140204_EM710.all.mb58.gz 85.85MB Kongsberg multibeam vendor format
0001_20140205_211212_FK140204_EM710.all.mb58.gz 76.57MB Kongsberg multibeam vendor format
0001_20140207_083818_FK140204_EM710.all.mb58.gz 33.64MB Kongsberg multibeam vendor format
0001_20140207_184950_FK140204_EM710.all.mb58.gz 31.72MB Kongsberg multibeam vendor format
0001_20140207_225231_FK140204_EM710.all.mb58.gz 4.67MB Kongsberg multibeam vendor format
0001_20140207_230933_FK140204_EM710.all.mb58.gz 3.18MB Kongsberg multibeam vendor format
0002_20140204_204030_FK140204_EM710.all.mb58.gz 49.81MB Kongsberg multibeam vendor format
0002_20140205_035601_FK140204_EM710.all.mb58.gz 31.08MB Kongsberg multibeam vendor format
0002_20140205_085744_FK140204_EM710.all.mb58.gz 87.89MB Kongsberg multibeam vendor format
0002_20140205_212716_FK140204_EM710.all.mb58.gz 74.36MB Kongsberg multibeam vendor format
0002_20140207_093818_FK140204_EM710.all.mb58.gz 41.83MB Kongsberg multibeam vendor format
0002_20140207_190556_FK140204_EM710.all.mb58.gz 74.31MB Kongsberg multibeam vendor format
0002_20140207_225710_FK140204_EM710.all.mb58.gz 4.69MB Kongsberg multibeam vendor format
0002_20140207_231154_FK140204_EM710.all.mb58.gz 3.55MB Kongsberg multibeam vendor format
0003_20140204_205618_FK140204_EM710.all.mb58.gz 27.86MB Kongsberg multibeam vendor format
0003_20140205_040838_FK140204_EM710.all.mb58.gz 76.79MB Kongsberg multibeam vendor format
0003_20140205_094424_FK140204_EM710.all.mb58.gz 83.30MB Kongsberg multibeam vendor format
0003_20140205_214129_FK140204_EM710.all.mb58.gz 98.59MB Kongsberg multibeam vendor format
0003_20140207_103819_FK140204_EM710.all.mb58.gz 15.05MB Kongsberg multibeam vendor format
0003_20140207_194205_FK140204_EM710.all.mb58.gz 59.85MB Kongsberg multibeam vendor format
0003_20140207_231347_FK140204_EM710.all.mb58.gz 4.62MB Kongsberg multibeam vendor format
0004_20140204_211745_FK140204_EM710.all.mb58.gz 28.45MB Kongsberg multibeam vendor format
0004_20140205_044250_FK140204_EM710.all.mb58.gz 11.43MB Kongsberg multibeam vendor format
0004_20140205_102703_FK140204_EM710.all.mb58.gz 84.51MB Kongsberg multibeam vendor format
0004_20140205_215507_FK140204_EM710.all.mb58.gz 89.54MB Kongsberg multibeam vendor format
0004_20140207_105542_FK140204_EM710.all.mb58.gz 21.89MB Kongsberg multibeam vendor format
0004_20140207_200332_FK140204_EM710.all.mb58.gz 31.97MB Kongsberg multibeam vendor format
0004_20140207_231620_FK140204_EM710.all.mb58.gz 3.31MB Kongsberg multibeam vendor format
0005_20140204_212803_FK140204_EM710.all.mb58.gz 49.63MB Kongsberg multibeam vendor format
0005_20140205_110950_FK140204_EM710.all.mb58.gz 75.54MB Kongsberg multibeam vendor format
0005_20140205_220930_FK140204_EM710.all.mb58.gz 107.85MB Kongsberg multibeam vendor format
0005_20140207_124008_FK140204_EM710.all.mb58.gz 3.32MB Kongsberg multibeam vendor format
0005_20140207_201654_FK140204_EM710.all.mb58.gz 72.85MB Kongsberg multibeam vendor format
0005_20140207_231822_FK140204_EM710.all.mb58.gz 3.38MB Kongsberg multibeam vendor format
0006_20140204_225009_FK140204_EM710.all.mb58.gz 9.50MB Kongsberg multibeam vendor format
0006_20140205_114628_FK140204_EM710.all.mb58.gz 83.75MB Kongsberg multibeam vendor format
0006_20140205_222310_FK140204_EM710.all.mb58.gz 76.57MB Kongsberg multibeam vendor format
0006_20140207_125243_FK140204_EM710.all.mb58.gz 12.43MB Kongsberg multibeam vendor format
0006_20140207_204410_FK140204_EM710.all.mb58.gz 23.23MB Kongsberg multibeam vendor format
0007_20140204_225335_FK140204_EM710.all.mb58.gz 17.69MB Kongsberg multibeam vendor format
0007_20140205_124055_FK140204_EM710.all.mb58.gz 53.63MB Kongsberg multibeam vendor format
0007_20140205_223637_FK140204_EM710.all.mb58.gz 62.70MB Kongsberg multibeam vendor format
0007_20140207_131146_FK140204_EM710.all.mb58.gz 67.28MB Kongsberg multibeam vendor format
0007_20140207_205208_FK140204_EM710.all.mb58.gz 63.39MB Kongsberg multibeam vendor format
0008_20140204_225955_FK140204_EM710.all.mb58.gz 17.85MB Kongsberg multibeam vendor format
0008_20140205_131756_FK140204_EM710.all.mb58.gz 47.98MB Kongsberg multibeam vendor format
0008_20140205_224810_FK140204_EM710.all.mb58.gz 45.24MB Kongsberg multibeam vendor format
0008_20140207_141146_FK140204_EM710.all.mb58.gz 66.15MB Kongsberg multibeam vendor format
0008_20140207_211632_FK140204_EM710.all.mb58.gz 21.59MB Kongsberg multibeam vendor format
0009_20140204_233345_FK140204_EM710.all.mb58.gz 6.02MB Kongsberg multibeam vendor format
0009_20140205_135256_FK140204_EM710.all.mb58.gz 32.19MB Kongsberg multibeam vendor format
0009_20140205_230018_FK140204_EM710.all.mb58.gz 35.72MB Kongsberg multibeam vendor format
0009_20140207_151148_FK140204_EM710.all.mb58.gz 115.10MB Kongsberg multibeam vendor format
0009_20140207_212546_FK140204_EM710.all.mb58.gz 71.83MB Kongsberg multibeam vendor format
0010_20140204_233605_FK140204_EM710.all.mb58.gz 43.69MB Kongsberg multibeam vendor format
0010_20140205_143226_FK140204_EM710.all.mb58.gz 28.54MB Kongsberg multibeam vendor format
0010_20140205_231122_FK140204_EM710.all.mb58.gz 42.61MB Kongsberg multibeam vendor format
0010_20140207_161147_FK140204_EM710.all.mb58.gz 118.95MB Kongsberg multibeam vendor format
0010_20140207_215426_FK140204_EM710.all.mb58.gz 91.46MB Kongsberg multibeam vendor format
0011_20140205_001231_FK140204_EM710.all.mb58.gz 38.01MB Kongsberg multibeam vendor format
0011_20140205_151245_FK140204_EM710.all.mb58.gz 25.89MB Kongsberg multibeam vendor format
0011_20140207_171147_FK140204_EM710.all.mb58.gz 35.77MB Kongsberg multibeam vendor format
0011_20140207_174707_FK140204_EM710.all.mb58.gz 35.62MB Kongsberg multibeam vendor format
0011_20140207_222710_FK140204_EM710.all.mb58.gz 26.86MB Kongsberg multibeam vendor format
0012_20140205_002633_FK140204_EM710.all.mb58.gz 1.17MB Kongsberg multibeam vendor format
0012_20140205_154956_FK140204_EM710.all.mb58.gz 26.28MB Kongsberg multibeam vendor format
0012_20140207_175118_FK140204_EM710.all.mb58.gz 36.28MB Kongsberg multibeam vendor format
0013_20140205_004451_FK140204_EM710.all.mb58.gz 365.2KB Kongsberg multibeam vendor format
0013_20140206_014915_FK140204_EM710.all.mb58.gz 59.80MB Kongsberg multibeam vendor format
0013_20140207_175354_FK140204_EM710.all.mb58.gz 1.67MB Kongsberg multibeam vendor format
0014_20140205_004459_FK140204_EM710.all.mb58.gz 22.65MB Kongsberg multibeam vendor format
0014_20140206_023355_FK140204_EM710.all.mb58.gz 40.60MB Kongsberg multibeam vendor format
0014_20140207_180637_FK140204_EM710.all.mb58.gz 30.86MB Kongsberg multibeam vendor format
0015_20140205_005317_FK140204_EM710.all.mb58.gz 51.05MB Kongsberg multibeam vendor format
0015_20140206_025913_FK140204_EM710.all.mb58.gz 9.48MB Kongsberg multibeam vendor format
0015_20140207_180846_FK140204_EM710.all.mb58.gz 31.50MB Kongsberg multibeam vendor format
0016_20140205_010919_FK140204_EM710.all.mb58.gz 0.52MB Kongsberg multibeam vendor format
0016_20140206_030747_FK140204_EM710.all.mb58.gz 29.45MB Kongsberg multibeam vendor format
0016_20140207_181103_FK140204_EM710.all.mb58.gz 0.63MB Kongsberg multibeam vendor format
0017_20140205_011839_FK140204_EM710.all.mb58.gz 43.83MB Kongsberg multibeam vendor format
0017_20140206_033419_FK140204_EM710.all.mb58.gz 7.94MB Kongsberg multibeam vendor format
0018_20140205_013228_FK140204_EM710.all.mb58.gz 39.35MB Kongsberg multibeam vendor format
0018_20140206_034129_FK140204_EM710.all.mb58.gz 25.81MB Kongsberg multibeam vendor format
0019_20140205_014637_FK140204_EM710.all.mb58.gz 1.35MB Kongsberg multibeam vendor format
0019_20140206_041058_FK140204_EM710.all.mb58.gz 44.35MB Kongsberg multibeam vendor format
0020_20140205_015708_FK140204_EM710.all.mb58.gz 45.44MB Kongsberg multibeam vendor format
0020_20140206_045701_FK140204_EM710.all.mb58.gz 9.68MB Kongsberg multibeam vendor format
0021_20140205_022745_FK140204_EM710.all.mb58.gz 9.51MB Kongsberg multibeam vendor format
0021_20140206_050643_FK140204_EM710.all.mb58.gz 3.57MB Kongsberg multibeam vendor format
0022_20140205_023428_FK140204_EM710.all.mb58.gz 45.28MB Kongsberg multibeam vendor format
0022_20140206_051017_FK140204_EM710.all.mb58.gz 20.21MB Kongsberg multibeam vendor format

Metadata Files: 3

Files File Size Description
FK140204_Multibeam.xml NGDC created ISO metadata
em302_bag_info.tar.gz 9.0KB Additional cruise information
em710_bag_info.tar.gz 9.2KB Additional cruise information

Water Column Sonar Data

Water Column Sonar Data Available: WCSD Map Viewer